Weather History for King Salmon, AK

Change the Weather History Date:

Monday, October 17, 2011

  Actual Average Record
Temperature  
Mean Temperature 32 °F 33 °F  
Max Temperature 44 °F 41 °F 56 °F (2002)
Min Temperature 20 °F 25 °F 8 °F (1965)
Degree Days  
Heating Degree Days 33 32  
Month to date heating degree days 430 480  
Since 1 July heating degree days 1729 1615  
Cooling Degree Days 0    
Month to date cooling degree days 0  
Year to date cooling degree days 0  
Moisture  
Dew Point 27 °F    
Average Humidity 0    
Maximum Humidity 0    
Minimum Humidity 0    
Precipitation  
Precipitation 0.00 in 0.07 in 0.72 in (2013)
Month to date precipitation 1.50 1.31  
Year to date precipitation 17.78 16.10  
Snow  
Snow 0.00 in 0.10 in 0.70 in (1948)
Month to date snowfall 0.0 0.9  
Since 1 July snowfall 0.0 1.0  
Since 1 September snowfall 0.0 1.0  
Snow Depth 0.00 in    
Sea Level Pressure  
Sea Level Pressure 29.88 in    
Wind  
Wind Speed 1 mph (SE)    
Max Wind Speed 6 mph    
Max Gust Speed 7 mph    
Visibility 7 miles    
Events Fog    
T = Trace of Precipitation, MM = Missing Value Source: NWS Daily Summary

Daily Weather History Graph

Daily Weather History Graph

Search for Another Location

Airport:

Trip Planner

Search our weather history database for the weather conditions in past years. The results will help you decide how hot, cold, wet, or windy it might be!

Date:

Astronomy

Oct. 17, 2011 Rise Set
Actual Time 9:07 AM AKDT 7:15 PM AKDT
Civil Twilight 8:26 AM AKDT 7:55 PM AKDT
Nautical Twilight 7:40 AM AKDT 8:42 PM AKDT
Astronomical Twilight 6:53 AM AKDT 9:28 PM AKDT
Moon 10:06 PM AKDT (10/17) 3:25 PM AKDT (10/17)
Length of Visible Light 11h 28m
Length of Day
10h 07m
Waning Gibbous, 73% of the Moon is Illuminated
Oct 17
Waning Gibbous
Oct 19
Last Quarter
Oct 26
New
Nov 2
First Quarter
Nov 10
Full

Hourly Weather History & Observations

Time (AKDT) Temp. Windchill Dew Point Humidity Pressure Visibility Wind Dir Wind Speed Gust Speed Precip Events Conditions
12:01 AM 26.6 °F 22.6 °F 26.6 °F 100% 29.88 in 1.5 mi East 3.5 mph - N/A   Partly Cloudy
12:17 AM 28.4 °F - 28.4 °F 100% 29.88 in 2.0 mi Calm Calm - N/A   Partly Cloudy
12:23 AM 28.4 °F - 26.6 °F 93% 29.88 in 1.2 mi Calm Calm - N/A   Partly Cloudy
12:38 AM 28.4 °F 24.6 °F 26.6 °F 93% 29.88 in 3.0 mi SSE 3.5 mph - N/A   Partly Cloudy
12:54 AM 28.0 °F 24.2 °F 27.0 °F 96% 29.89 in 10.0 mi South 3.5 mph - N/A   Partly Cloudy
1:01 AM 28.4 °F 24.6 °F 26.6 °F 93% 29.88 in 10.0 mi South 3.5 mph - N/A   Scattered Clouds
1:54 AM 26.1 °F 21.9 °F 25.0 °F 96% 29.88 in 10.0 mi ESE 3.5 mph - N/A   Partly Cloudy
2:54 AM 26.1 °F 21.9 °F 25.0 °F 96% 29.89 in 10.0 mi South 3.5 mph - N/A   Clear
3:16 AM 24.8 °F 20.5 °F 24.8 °F 100% 29.88 in 10.0 mi SSE 3.5 mph - N/A   Partly Cloudy
3:32 AM 24.8 °F 20.5 °F 24.8 °F 100% 29.89 in 10.0 mi SE 3.5 mph - N/A   Mostly Cloudy
3:54 AM 24.1 °F 19.7 °F 21.9 °F 91% 29.89 in 10.0 mi ESE 3.5 mph - N/A   Mostly Cloudy
4:11 AM 23.0 °F 17.0 °F 21.2 °F 93% 29.89 in 10.0 mi SE 4.6 mph - N/A   Scattered Clouds
4:54 AM 24.1 °F 19.7 °F 21.9 °F 91% 29.89 in 10.0 mi SE 3.5 mph - N/A   Partly Cloudy
5:54 AM 23.0 °F - 21.0 °F 92% 29.89 in 10.0 mi Calm Calm - N/A   Clear
6:54 AM 23.0 °F 17.0 °F 21.0 °F 92% 29.90 in 10.0 mi SE 4.6 mph - N/A   Clear
7:54 AM 19.9 °F - 18.0 °F 92% 29.89 in 10.0 mi Calm Calm - N/A   Clear
8:38 AM 21.2 °F - 19.4 °F 93% 29.89 in 10.0 mi Calm Calm - N/A   Scattered Clouds
8:54 AM 21.0 °F - 19.0 °F 92% 29.90 in 10.0 mi Calm Calm - N/A   Scattered Clouds
9:01 AM 19.4 °F - 19.4 °F 100% 29.89 in 10.0 mi Calm Calm - N/A   Overcast
9:22 AM 21.2 °F - 19.4 °F 93% 29.89 in 1.0 mi Calm Calm - N/A   Scattered Clouds
9:33 AM 21.2 °F - 17.6 °F 86% 29.89 in 0.8 mi Calm Calm - N/A   Mostly Cloudy
9:52 AM 24.8 °F - 23.0 °F 93% 29.89 in 0.2 mi Calm Calm - N/A Fog Light Freezing Fog
9:54 AM 24.1 °F - 23.0 °F 96% 29.90 in 0.2 mi Calm Calm - N/A Fog Light Freezing Fog
10:54 AM 28.0 °F 24.2 °F 27.0 °F 96% 29.91 in 0.2 mi West 3.5 mph - N/A Fog Light Freezing Fog
11:54 AM 30.9 °F - 30.9 °F 100% 29.90 in 0.2 mi Calm Calm - N/A Fog Light Freezing Fog
12:44 PM 33.8 °F - 33.8 °F 100% 29.90 in 0.5 mi Calm Calm - N/A Fog Fog
12:54 PM 35.1 °F - 35.1 °F 100% 29.91 in 0.5 mi Calm Calm - N/A Fog Fog
1:20 PM 37.4 °F - 37.4 °F 100% 29.90 in 1.5 mi Calm Calm - N/A   Mostly Cloudy
1:26 PM 37.4 °F - 37.4 °F 100% 29.90 in 5.0 mi Calm Calm - N/A   Overcast
1:45 PM 37.4 °F - 37.4 °F 100% 29.89 in 3.0 mi Calm Calm - N/A   Mostly Cloudy
1:54 PM 39.0 °F - 37.0 °F 93% 29.90 in 10.0 mi Calm Calm - N/A   Scattered Clouds
2:54 PM 43.0 °F - 33.1 °F 68% 29.88 in 10.0 mi Calm Calm - N/A   Scattered Clouds
3:54 PM 43.0 °F - 30.9 °F 62% 29.87 in 10.0 mi Calm Calm - N/A   Scattered Clouds
4:54 PM 43.0 °F - 30.9 °F 62% 29.87 in 10.0 mi Calm Calm - N/A   Mostly Cloudy
5:54 PM 43.0 °F - 28.9 °F 58% 29.86 in 10.0 mi Calm Calm - N/A   Mostly Cloudy
6:54 PM 42.1 °F - 30.9 °F 65% 29.86 in 10.0 mi Calm Calm - N/A   Mostly Cloudy
7:54 PM 37.0 °F 34.5 °F 30.0 °F 76% 29.86 in 10.0 mi NE 3.5 mph - N/A   Mostly Cloudy
8:54 PM 36.0 °F - 30.9 °F 82% 29.86 in 10.0 mi Calm Calm - N/A   Mostly Cloudy
9:54 PM 32.0 °F - 30.0 °F 92% 29.85 in 10.0 mi Calm Calm - N/A   Mostly Cloudy
10:54 PM 34.0 °F - 30.9 °F 89% 29.85 in 10.0 mi Calm Calm - N/A   Overcast
11:54 PM 34.0 °F - 30.9 °F 89% 29.85 in 10.0 mi Calm Calm - N/A   Mostly Cloudy